{"data":{"norad_id":64360,"intl_designator":"2025-126S","name":"STARLINK-34458","alt_names":[],"object_type":"PAYLOAD","status":"ACTIVE","operator":null,"country":"US","launch_date":"2025-06-13","launch_site_code":"AFWTR","launch_vehicle":null,"mission":null,"orbit_class":"UNKNOWN","rcs_meters":null,"size_class":null,"mass_kg":null,"dimensions":null,"purposes":["comms"],"wikipedia_slug":null,"has_3d_model":false,"image_url":null,"decayed_at":null,"tle_current":{"epoch":"2026-05-25T03:25:51.216096Z","epoch_age_seconds":72868,"freshness":"FRESH","line1":"1 64360U 25126S   26145.14295389  .00049002  00000+0  40897-2 0  9998","line2":"2 64360  70.0000 201.6944 0003684 283.5724  76.5024 14.98292933 52131","mean_motion":14.98292933,"eccentricity":0.0003684,"inclination_deg":70,"raan_deg":201.6944,"arg_perigee_deg":283.5724,"mean_anomaly_deg":76.5024,"bstar":0.0040897,"rev_number":5213,"period_min":96.109376763643,"perigee_km":569.61002665706,"apogee_km":574.73101323776,"semimajor_km":6950.3075199474,"source":"CELESTRAK","updated_at":"2026-05-25T13:38:20.404866Z"}}}